Погода в Бельцах

Молдова     47°45′38″N   27°55′38″E
темп.,
°C
ветер,
м/с
пор.,
м/с
влажн.,
%
обл.,
%
осадки,
мм/ч
давл.,
гПа
погр.,
м
6 мая, чт
чт600:00+11ю6147975 0.3 1007400
03:00+10ю5128146 0.3 1006258
06:00+8ю3688100 0.0 1007110
09:00+11сз6982100 0.1 1010730
12:00+12ссз5863100 0.0 10131274
15:00+15ссз6649100 0.0 10131273
18:00+15ссз2448100 0.0 10141426
21:00+11ююз2261100 0.0 101418
7 мая, пт
пт700:00+9ю22695 0.0 101515
03:00+9юв3470100 0.0 101450
06:00+9юв41180100 0.1 1013275
09:00+13ююв71175100 0.1 1012770
12:00+17ю7963100 0.0 10111182
15:00+19ююз71160100 0.9 10091505
18:00+18ююз61368100 1.4 1007527
21:00+15юз3678100 1.9 1007104
8 мая, сб
сб800:00+13сз2279100 0.1 100845
03:00+11ссз51187100 0.5 1011655
06:00+9сз71181100 0.7 1013732
09:00+8сз71175100 0.7 1016839
12:00+10ссз6953100 0.0 10171232
15:00+14ссз693959 0.0 10172406
18:00+12ссз79440 0.0 10181988
21:00+7ссз35643 0.0 102192
9 мая, вс
вс900:00+5зсз22715 0.0 102314
03:00+4зсз39764 0.0 1024173
06:00+4сз22820 0.0 102535
09:00+10сз34615 0.0 1026571
12:00+14зсз34455 0.0 10261768
15:00+16зсз343783 0.0 10252383
18:00+16зюз1136100 0.0 10251946
21:00+11ююв22484 0.0 102612
10 мая, пн
пн1000:00+9юв33525 0.0 102621
03:00+8юв346113 0.0 102645
06:00+7вюв34675 0.0 102654
09:00+13юв57595 0.0 1026410
12:00+17ююв674465 0.0 10261487
15:00+19ююв66404 0.0 10241696
18:00+18ююв56430 0.0 10231587
21:00+13юв22630 0.0 102316